Temperature
5 5 5 5 5 5 5 5 4 4 4 5 5 5 5 5 5 5 5 5 6 6 6 6 6 5 5 5 5 5 5 5 5 5 5 5 5 5
4 4 4 4 4 4 4 4 4 4 3 4 4 4 4 5 5 5 5 5 5 5 5 5 5 5 5 5 5 5 5 5 5 4 4 4 4 4
4 4 4 4 4 4 4 4 4 4 3 4 4 4 4 4 4 4 4 4 4 5 5 5 5 5 5 5 5 5 4 4 4 4 4 4 4 4
3 3 3 3 3 3 3 4 4 3 3 3 4 4 4 4 4 4 4 4 4 4 4 4 4 4 4 4 4 4 4 4 4 4 3 3 3 4
3 3 3 3 3 3 3 3 3 3 3 3 3 3 3 3 3 3 3 3 4 4 4 4 4 4 4 4 4 4 3 3 3 3 3 3 3 3
2 2 2 2 2 2 2 2 2 2 2 3 3 3 3 3 3 3 3 3 3 3 3 3 3 3 4 3 3 3 3 3 3 3 3 3 3 3
2 2 2 2 2 2 2 2 2 2 2 2 2 2 2 2 2 2 2 2 3 3 3 3 3 3 3 3 3 3 3 2 2 2 2 2 2 2
1 1 1 1 1 1 1 1 1 2 2 2 2 2 2 1 1 1 1 1 2 2 2 2 2 2 2 2 3 3 2 2 2 2 2 2 2 2
1 1 0 0 0 1 1 1 1 1 1 1 1 1 1 1 1 1 1 1 1 1 1 2 2 2 2 2 2 2 2 2 2 2 2 2 2 2
0 0 0 -0 -0 -0 0 0 0 1 1 1 1 1 1 1 1 0 0 0 1 1 1 1 1 1 2 2 2 2 2 2 2 1 1 1 1 2
-0 -0 -0 -1 -1 -0 -0 -0 -0 -0 0 0 0 0 0 0 0 0 0 -0 0 0 0 0 0 1 1 1 1 1 1 1 1 1 1 1 1 2
-1 -1 -1 -1 -1 -1 -1 -1 -1 -1 -0 -0 0 0 0 0 0 -0 -0 -1 -1 -1 -1 -1 -0 -0 -0 1 1 1 1 1 1 1 1 1 1 1
-1 -1 -2 -1 -1 -1 -1 -1 -1 -1 -1 -1 -0 -1 -0 -0 -0 -0 -1 -1 -1 -1 -1 -1 -1 -1 -1 -1 -0 0 0 1 1 1 1 1 1 1
-2 -2 -2 -2 -2 -1 -1 -1 -1 -1 -1 -1 -1 -1 -1 -1 -1 -1 -1 -1 -1 -1 -1 -1 -1 -1 -1 -1 -1 -0 -0 0 0 0 0 1 1 1
-2 -2 -2 -2 -2 -2 -2 -2 -2 -2 -2 -2 -2 -2 -2 -1 -1 -1 -1 -1 -1 -1 -1 -1 -1 -1 -1 -1 -1 -1 -1 -0 -0 -0 -0 0 0 1
-2 -2 -2 -2 -2 -2 -2 -2 -2 -2 -2 -2 -2 -2 -2 -2 -2 -2 -2 -2 -2 -2 -2 -2 -2 -2 -1 -1 -1 -1 -1 -1 -0 -1 -0 -0 0 0
-3 -3 -3 -3 -3 -3 -3 -3 -3 -3 -3 -3 -3 -3 -3 -3 -3 -3 -2 -2 -3 -2 -2 -2 -2 -2 -2 -2 -1 -1 -1 -1 -1 -1 -1 -0 0 0
-3 -4 -4 -4 -4 -4 -4 -4 -4 -4 -4 -3 -3 -3 -3 -3 -3 -3 -3 -3 -3 -3 -3 -3 -2 -2 -2 -2 -2 -2 -2 -2 -1 -1 -1 -1 -0 0
-4 -4 -4 -4 -4 -4 -4 -4 -4 -4 -4 -4 -4 -4 -4 -4 -4 -4 -4 -4 -4 -3 -3 -3 -3 -3 -3 -3 -2 -2 -2 -2 -2 -1 -1 -1 -1 -0
-4 -4 -5 -5 -5 -5 -5 -5 -5 -5 -5 -5 -4 -4 -4 -4 -4 -4 -4 -4 -4 -4 -4 -3 -3 -3 -3 -3 -3 -2 -2 -2 -2 -1 -1 -1 -1 -0
-5 -5 -5 -5 -5 -5 -5 -5 -5 -5 -5 -5 -5 -5 -5 -5 -5 -5 -5 -5 -4 -4 -4 -4 -4 -4 -3 -3 -3 -3 -3 -2 -2 -2 -1 -1 -1 -0
-5 -5 -5 -5 -6 -6 -5 -5 -5 -5 -5 -5 -5 -5 -5 -5 -5 -5 -5 -5 -5 -4 -4 -4 -4 -4 -3 -4 -4 -3 -3 -2 -2 -2 -2 -2 -2 -1
-5 -6 -6 -6 -6 -6 -6 -6 -6 -6 -6 -6 -6 -5 -5 -5 -5 -5 -5 -5 -5 -5 -5 -4 -4 -4 -4 -4 -4 -4 -3 -3 -2 -2 -2 -2 -2 -1
Wind_Speed
3 3 2 2 2 2 2 2 3 3 3 2 2 3 4 5 6 7 7 8 9 8 9 9 9 10 10 10 10 9 9 10 10 10 10 11 12 12
3 3 2 1 1 2 2 2 3 3 3 3 3 4 5 5 6 7 7 9 8 8 8 10 10 10 10 10 9 9 8 8 9 10 10 11 12 12
2 2 2 2 1 2 2 2 3 3 4 4 3 4 5 5 6 6 7 7 6 8 9 9 10 9 10 9 8 8 8 8 9 9 10 11 12 12
2 2 2 2 2 2 2 2 3 3 4 4 4 4 5 5 5 6 6 6 6 8 9 9 10 9 9 8 8 8 8 8 9 9 10 11 11 11
2 2 2 2 2 2 2 2 2 2 3 3 4 4 4 4 5 5 5 5 6 7 8 9 9 9 8 8 8 8 8 8 9 9 9 9 10 10
1 1 2 2 2 2 2 2 2 2 2 2 3 3 4 4 4 5 5 5 6 6 7 8 9 8 7 7 7 7 8 8 8 8 8 9 9 9
1 1 1 1 2 2 2 2 2 2 2 2 2 3 3 4 4 4 6 6 6 4 6 6 6 6 5 6 6 8 8 8 8 8 8 8 8 9
1 0 0 0 1 1 2 3 2 2 2 2 3 3 4 4 4 4 5 5 5 4 6 7 6 5 5 5 7 8 8 9 9 8 8 8 9 9
1 1 0 0 1 1 1 2 2 3 3 3 4 4 4 4 5 5 5 6 6 6 6 6 5 5 5 6 8 8 8 8 9 9 9 9 9 8
1 0 0 1 1 1 2 2 3 3 3 3 3 4 4 4 4 5 5 6 6 4 5 4 5 5 6 6 6 7 8 9 9 9 9 9 9 9
0 0 0 0 1 2 2 2 2 2 3 3 4 4 5 5 5 3 3 4 5 4 3 3 4 6 6 4 5 7 8 9 9 9 9 10 9 9
1 1 0 1 1 2 1 1 2 3 3 3 2 3 3 3 3 3 3 4 4 3 3 3 4 4 4 4 5 7 7 8 9 9 9 9 9 6
1 0 0 1 2 2 2 1 2 3 2 2 2 3 3 3 3 3 3 3 4 4 3 3 3 4 3 4 5 6 6 6 7 8 8 8 8 6
1 0 0 1 2 2 2 2 3 2 1 2 2 3 3 3 4 4 4 4 4 5 6 5 3 4 4 5 5 6 6 7 6 6 6 7 7 7
1 1 1 2 2 2 3 3 2 1 2 2 2 3 3 4 4 4 4 4 4 4 4 5 4 4 4 5 5 6 6 6 6 5 6 5 5 5
1 2 3 3 3 3 3 3 2 2 2 2 3 3 3 3 3 3 4 4 4 4 5 6 5 4 4 5 5 6 6 5 6 6 6 6 5 5
1 1 1 2 2 2 2 3 3 3 3 3 3 3 3 3 4 4 4 4 3 4 5 6 6 5 4 4 5 5 6 6 6 6 6 6 5 5
2 1 1 1 1 2 2 2 3 3 3 3 3 3 3 4 4 4 4 4 4 4 5 5 5 4 3 2 2 5 5 6 6 6 5 5 6 5
2 1 1 1 1 1 2 2 2 3 3 3 3 3 4 4 4 4 4 4 4 4 5 5 4 4 4 5 4 3 5 6 6 6 5 5 6 6
1 1 0 0 1 1 2 2 2 2 3 3 3 3 4 4 4 4 4 4 4 5 5 4 4 4 4 5 4 5 6 5 5 6 6 6 5 6
0 0 0 0 1 1 2 2 2 2 3 3 3 3 3 4 4 4 4 5 5 5 5 5 5 7 5 3 3 4 5 6 6 5 6 5 5 4
0 0 1 1 1 1 1 2 2 2 3 3 3 3 4 4 4 5 5 5 4 5 6 5 5 5 4 3 4 5 6 7 6 6 6 4 3 3
1 1 1 1 1 1 1 2 2 2 3 3 3 3 4 4 4 4 4 4 4 5 5 5 5 4 4 4 4 5 6 7 6 5 5 6 6 8
Wind_Direction
232 232 236 248 252 247 247 249 259 267 273 285 298 308 322 319 320 316 315 319 315 314 313 311 308 308 308 306 305 303 303 301 300 303 305 305 306 305
221 222 232 242 250 243 241 256 264 260 270 288 298 303 313 314 314 317 318 316 311 312 314 314 309 307 308 307 303 303 303 302 302 302 304 305 306 306
214 219 232 243 238 249 254 254 259 263 270 291 300 303 306 312 319 324 324 321 321 315 314 318 314 309 308 309 308 306 307 307 306 305 304 304 305 306
219 227 231 236 246 251 260 261 268 272 272 282 297 304 305 311 314 317 326 326 323 322 317 318 318 311 309 311 314 313 310 307 307 306 304 304 304 303
220 230 233 237 249 259 266 267 277 279 274 267 287 306 309 316 319 321 326 327 329 326 325 320 321 317 312 312 313 315 313 310 308 308 308 306 306 303
216 235 241 242 249 266 277 274 285 295 280 269 282 305 313 318 320 323 325 328 327 328 333 327 317 311 315 319 320 319 318 316 316 315 313 311 309 307
175 209 261 301 312 295 296 302 299 296 293 286 287 303 312 319 319 321 319 322 323 327 327 326 322 319 321 324 329 334 329 323 321 319 318 318 313 308
176 189 287 312 11 5 337 330 321 299 293 282 287 289 301 308 313 313 316 319 318 332 324 318 320 319 327 332 334 332 331 328 325 321 318 315 311 307
170 183 219 333 320 319 343 339 332 321 297 283 274 284 293 299 300 302 306 309 305 313 316 307 319 316 324 322 327 330 331 330 330 324 318 313 309 306
145 199 246 341 341 339 334 340 335 332 317 294 284 293 299 303 298 295 300 304 301 306 313 298 317 318 319 316 326 332 330 330 331 330 323 316 311 307
79 33 16 347 7 334 329 331 333 343 355 337 322 315 314 315 314 302 301 306 309 314 331 310 316 320 312 307 325 326 323 327 331 329 326 325 318 309
79 70 82 5 355 346 332 316 320 326 330 335 339 343 332 323 318 296 286 288 302 302 336 328 316 328 317 314 324 327 324 323 327 328 328 329 329 320
103 63 54 24 358 348 338 332 322 323 319 324 329 336 336 333 330 321 301 282 284 283 304 319 303 311 298 305 315 320 324 327 330 327 326 330 335 334
89 43 24 3 4 5 6 1 345 334 338 335 335 337 337 336 333 326 318 302 282 276 285 292 283 295 302 304 306 317 323 327 329 326 326 324 326 326
78 65 47 50 32 30 35 20 3 358 353 344 337 332 330 323 326 330 333 330 318 306 304 302 290 288 288 289 298 309 317 321 328 327 325 322 321 322
79 87 75 61 48 41 29 23 14 6 352 342 332 328 327 328 330 332 329 334 331 333 338 330 316 300 294 293 292 299 308 311 321 323 320 315 317 318
93 84 66 54 38 29 24 20 13 6 1 349 340 337 336 337 334 334 329 328 326 326 330 335 333 320 295 295 298 301 310 312 311 319 317 315 316 317
117 100 73 48 27 13 8 6 3 358 352 341 338 337 333 331 328 330 329 327 327 324 325 327 332 331 322 322 303 307 316 316 318 319 316 313 315 321
114 100 70 33 13 353 345 343 338 340 338 335 331 330 326 323 324 327 329 327 326 322 322 324 329 333 331 328 333 329 320 319 320 319 319 315 311 315
90 102 86 345 337 327 323 326 330 333 334 329 325 325 325 320 318 319 320 322 323 321 320 327 332 330 317 310 309 314 318 314 317 319 320 318 315 311
97 71 343 303 300 305 309 314 319 322 324 323 324 323 322 319 316 318 317 319 320 318 318 320 322 320 308 299 302 311 320 322 313 311 319 321 326 337
204 259 276 288 294 293 296 303 310 315 318 316 319 321 320 317 315 314 316 318 317 316 314 315 320 323 325 317 313 316 320 328 329 319 305 295 305 322
255 264 260 265 275 278 281 288 295 300 306 310 311 315 315 314 316 313 311 311 315 318 319 319 324 326 322 314 314 317 321 328 334 344 344 335 305 291
Height
1472 1472 1472 1473 1473 1473 1474 1475 1475 1473 1473 1472 1471 1470 1469 1468 1466 1465 1464 1462 1461 1459 1458 1456 1455 1454 1453 1451 1450 1448 1447 1446 1444 1442 1441 1440 1438 1437
1469 1469 1470 1470 1470 1471 1471 1472 1471 1471 1470 1468 1468 1467 1466 1464 1463 1461 1460 1458 1457 1455 1454 1452 1451 1450 1449 1447 1446 1444 1443 1442 1440 1438 1437 1436 1434 1433
1466 1466 1467 1467 1468 1468 1468 1468 1468 1468 1467 1465 1465 1464 1463 1461 1460 1458 1456 1455 1453 1452 1450 1449 1447 1446 1445 1443 1442 1440 1439 1437 1436 1434 1433 1432 1431 1429
1463 1464 1464 1465 1465 1465 1465 1465 1465 1465 1464 1462 1461 1460 1460 1458 1457 1455 1453 1452 1450 1448 1447 1445 1444 1442 1441 1439 1438 1437 1435 1433 1432 1431 1429 1428 1427 1425
1460 1461 1461 1462 1462 1462 1462 1462 1462 1462 1461 1460 1458 1457 1456 1456 1454 1452 1451 1449 1447 1445 1443 1442 1440 1438 1437 1436 1434 1433 1431 1430 1428 1427 1425 1424 1423 1422
1458 1458 1459 1459 1459 1459 1459 1459 1459 1459 1459 1458 1456 1455 1454 1453 1451 1449 1447 1446 1444 1442 1440 1438 1437 1435 1434 1432 1431 1429 1428 1427 1425 1423 1422 1421 1419 1418
1455 1456 1456 1456 1456 1457 1457 1456 1457 1456 1456 1455 1453 1452 1451 1450 1448 1447 1445 1443 1441 1439 1437 1435 1434 1432 1431 1429 1428 1426 1425 1423 1422 1420 1419 1417 1416 1415
1453 1453 1453 1454 1454 1455 1455 1454 1454 1454 1453 1452 1451 1450 1449 1448 1446 1445 1443 1441 1439 1438 1435 1433 1431 1429 1428 1426 1425 1423 1422 1420 1419 1417 1416 1414 1413 1411
1450 1451 1451 1452 1452 1452 1452 1451 1451 1451 1451 1451 1449 1448 1447 1445 1444 1443 1441 1440 1438 1435 1433 1430 1429 1427 1425 1424 1422 1420 1419 1417 1416 1414 1413 1411 1410 1408
1448 1448 1449 1449 1450 1450 1449 1449 1449 1448 1448 1448 1447 1446 1445 1443 1442 1441 1439 1437 1435 1434 1432 1429 1426 1424 1422 1421 1419 1418 1416 1414 1413 1411 1409 1408 1406 1405
1446 1447 1447 1447 1447 1447 1447 1447 1446 1446 1446 1445 1444 1443 1442 1441 1439 1438 1437 1435 1433 1431 1430 1427 1424 1421 1419 1418 1417 1415 1414 1412 1410 1408 1406 1405 1403 1402
1444 1445 1445 1446 1446 1445 1445 1445 1444 1443 1443 1442 1441 1440 1439 1437 1437 1436 1435 1433 1431 1429 1427 1425 1422 1420 1417 1415 1414 1413 1411 1409 1407 1405 1404 1402 1400 1399
1443 1443 1443 1444 1444 1443 1443 1443 1442 1442 1440 1439 1438 1437 1436 1435 1434 1433 1432 1431 1430 1428 1426 1424 1421 1419 1417 1414 1412 1411 1409 1407 1405 1403 1401 1400 1398 1396
1441 1441 1441 1442 1442 1441 1441 1441 1441 1440 1439 1438 1437 1436 1434 1433 1432 1431 1429 1428 1427 1426 1424 1422 1420 1418 1416 1413 1410 1408 1407 1405 1403 1401 1399 1398 1396 1395
1440 1440 1440 1440 1440 1440 1439 1439 1439 1438 1437 1436 1435 1434 1433 1432 1430 1429 1427 1426 1425 1423 1422 1420 1418 1416 1415 1412 1409 1407 1405 1403 1402 1400 1397 1395 1394 1392
1439 1439 1439 1439 1439 1439 1438 1437 1437 1437 1436 1435 1434 1433 1432 1430 1429 1427 1425 1424 1423 1421 1420 1418 1417 1415 1412 1410 1408 1406 1404 1402 1400 1398 1396 1393 1392 1390
1438 1438 1438 1438 1438 1437 1436 1436 1436 1435 1435 1434 1433 1431 1430 1429 1427 1426 1424 1423 1421 1419 1418 1417 1415 1413 1411 1409 1407 1405 1403 1401 1399 1396 1394 1392 1390 1388
1437 1437 1437 1437 1436 1436 1435 1435 1434 1434 1433 1432 1431 1430 1429 1428 1426 1425 1423 1422 1420 1418 1416 1414 1412 1411 1409 1407 1406 1404 1402 1399 1397 1395 1393 1390 1388 1387
1436 1436 1436 1436 1435 1435 1434 1434 1433 1433 1432 1431 1431 1430 1428 1427 1425 1424 1423 1421 1419 1417 1416 1414 1412 1410 1408 1406 1405 1404 1401 1398 1396 1394 1392 1390 1387 1385
1434 1435 1434 1434 1434 1434 1433 1433 1432 1431 1431 1430 1429 1428 1427 1426 1424 1423 1421 1420 1418 1416 1414 1413 1411 1409 1408 1407 1404 1402 1401 1398 1395 1393 1391 1389 1386 1385
1433 1433 1433 1433 1433 1433 1432 1432 1431 1430 1430 1429 1428 1427 1426 1424 1423 1422 1420 1418 1417 1415 1413 1412 1410 1409 1407 1406 1403 1401 1400 1398 1395 1393 1390 1388 1385 1383
1432 1432 1432 1431 1431 1431 1431 1430 1430 1429 1429 1428 1427 1426 1424 1423 1422 1420 1419 1417 1416 1414 1412 1411 1409 1408 1406 1405 1402 1400 1398 1397 1395 1393 1391 1389 1387 1384
1430 1430 1430 1430 1430 1429 1429 1429 1428 1428 1427 1426 1425 1424 1423 1422 1421 1419 1418 1416 1415 1413 1412 1410 1408 1407 1405 1404 1402 1400 1397 1396 1394 1392 1390 1389 1387 1386